Doha, Qatar

12:22 PM +03 on January 20, 2018 (GMT +0300)
Doha International

Weather History for OTBD - October, 2012

Change the Weather History Date:

Monday, October 15, 2012

  Actual Average Record
Temperature  
Mean Temperature 90 °F -  
Max Temperature 97 °F 90 °F 104 °F (2004)
Min Temperature 82 °F 70 °F 74 °F (2013)
Cooling Degree Days 24    
Growing Degree Days 40 (Base 50)    
Moisture  
Dew Point 64 °F    
Average Humidity 45    
Maximum Humidity 66    
Minimum Humidity 23    
Precipitation  
Precipitation 0.00 in 0.00 in - ()
Sea Level Pressure  
Sea Level Pressure 29.91 in    
Wind  
Wind Speed 8 mph ()    
Max Wind Speed 16 mph    
Max Gust Speed -    
Visibility 7.0 miles    
Events      
Averages and records for this station are not official NWS values.
T = Trace of Precipitation, MM = Missing Value Source: Averaged Metar Reports

Daily Weather History Graph

Daily Weather History Graph

Search for Another Location

Airport or City:

Trip Planner

Search our weather history database for the weather conditions in past years. The results will help you decide how hot, cold, wet, or windy it might be!

Date:

Astronomy

Oct. 15, 2012 Rise Set
Actual Time 5:32 AM +03 5:06 PM +03
Civil Twilight 5:09 AM +03 5:29 PM +03
Nautical Twilight 4:42 AM +03 5:56 PM +03
Astronomical Twilight 4:15 AM +03 6:22 PM +03
Moon 5:11 AM +03 (10/15) 4:55 PM +03 (10/15)
Length of Visible Light 12h 20m
Length of Day
11h 34m
Waning Crescent, 0% of the Moon is Illuminated
Oct 15
Waning Crescent
Oct 15
New
Oct 22
First Quarter
Oct 29
Full
Nov 7
Last Quarter

Hourly Weather History & Observations

Time (+03) Temp. Heat Index Dew Point Humidity Pressure Visibility Wind Dir Wind Speed Gust Speed Precip Events Conditions
12:00 AM 86.0 °F 89.4 °F 68.0 °F 55% 29.92 in - NW 6.9 mph - N/A   Clear
12:30 AM 86.0 °F 89.4 °F 68.0 °F 55% 29.92 in - NW 6.9 mph - N/A   Clear
1:00 AM 84.2 °F 87.3 °F 68.0 °F 58% 29.92 in - NW 8.1 mph - N/A   Clear
1:30 AM 84.2 °F 87.3 °F 68.0 °F 58% 29.89 in - NW 6.9 mph - N/A   Clear
2:00 AM 84.2 °F 88.4 °F 69.8 °F 62% 29.89 in - NW 4.6 mph - N/A   Clear
2:30 AM 84.2 °F 87.3 °F 68.0 °F 58% 29.89 in - NW 5.8 mph - N/A   Clear
3:00 AM 85 °F - 68 °F 48% 29.90 in 7 mi NW 5.8 mph - -   Clear
3:00 AM 86.0 °F 89.4 °F 68.0 °F 55% 29.89 in - NW 5.8 mph - N/A   Clear
3:30 AM 86.0 °F 89.4 °F 68.0 °F 55% 29.89 in - West 3.5 mph - N/A   Clear
4:00 AM 84.2 °F 87.3 °F 68.0 °F 58% 29.89 in - WSW 4.6 mph - N/A   Clear
4:30 AM 84.2 °F 88.4 °F 69.8 °F 62% 29.89 in - WSW 5.8 mph - N/A   Clear
5:00 AM 82.4 °F 86.3 °F 69.8 °F 66% 29.89 in - WSW 4.6 mph - N/A   Clear
5:30 AM 82.4 °F 86.3 °F 69.8 °F 66% 29.92 in - West 4.6 mph - N/A   Clear
6:00 AM 82.4 °F 86.3 °F 69.8 °F 66% 29.92 in - Variable 4.6 mph - N/A   Clear
6:30 AM 82.4 °F 86.3 °F 69.8 °F 66% 29.92 in - West 5.8 mph - N/A   Clear
7:00 AM 84.2 °F 88.4 °F 69.8 °F 62% 29.95 in - West 4.6 mph - N/A   Clear
7:30 AM 86.0 °F 89.4 °F 68.0 °F 55% 29.95 in - West 5.8 mph - N/A   Clear
8:00 AM 87.8 °F 91.4 °F 68.0 °F 52% 29.95 in - WNW 5.8 mph - N/A   Clear
8:30 AM 87.8 °F 90.4 °F 66.2 °F 49% 29.95 in - Variable 5.8 mph - N/A   Clear
9:00 AM 89.6 °F 89.5 °F 60.8 °F 38% 29.98 in - NW 9.2 mph - N/A   Clear
9:30 AM 91.4 °F 93.2 °F 64.4 °F 41% 29.98 in - NW 5.8 mph - N/A   Clear
10:00 AM 91.4 °F 93.2 °F 64.4 °F 41% 29.95 in - NNW 9.2 mph - N/A   Clear
10:30 AM 93.2 °F 94.1 °F 62.6 °F 36% 29.95 in - NNW 9.2 mph - N/A   Clear
11:00 AM 95.0 °F 95.2 °F 60.8 °F 32% 29.95 in - NNW 10.4 mph - N/A   Clear
11:30 AM 95.0 °F 94.4 °F 59.0 °F 30% 29.92 in - NW 10.4 mph - N/A   Clear
12:00 PM 96.8 °F 97.1 °F 60.8 °F 30% 29.92 in - North 10.4 mph - N/A   Clear
12:30 PM 96.8 °F 94.4 °F 53.6 °F 23% 29.89 in - North 13.8 mph - N/A   Clear
1:00 PM 95.0 °F 95.2 °F 60.8 °F 32% 29.89 in - North 13.8 mph - N/A   Clear
1:30 PM 95.0 °F 95.2 °F 60.8 °F 32% 29.89 in - NNE 16.1 mph - N/A   Clear
2:00 PM 96.8 °F 95.1 °F 55.4 °F 25% 29.86 in - North 13.8 mph - N/A   Clear
2:30 PM 96.8 °F 94.4 °F 53.6 °F 23% 29.86 in - NNW 12.7 mph - N/A   Clear
3:00 PM 96.8 °F 95.1 °F 55.4 °F 25% 29.86 in - NNW 13.8 mph - N/A   Clear
3:30 PM 96.8 °F 95.1 °F 55.4 °F 25% 29.86 in - NNW 15.0 mph - N/A   Clear
4:00 PM 95.0 °F 93.0 °F 55.4 °F 26% 29.89 in - NNW 13.8 mph - N/A   Clear
4:30 PM 95.0 °F 93.0 °F 55.4 °F 26% 29.89 in - NNW 15.0 mph - N/A   Clear
5:00 PM 93.2 °F - 50.0 °F 23% 29.89 in - NW 11.5 mph - N/A   Clear
5:30 PM 93.2 °F 90.8 °F 53.6 °F 26% 29.89 in - NNW 12.7 mph - N/A   Clear
6:00 PM 91.4 °F 91.4 °F 60.8 °F 36% 29.89 in - NNW 11.5 mph - N/A   Clear
6:30 PM 89.6 °F 89.5 °F 60.8 °F 38% 29.92 in - NNW 13.8 mph - N/A   Clear
7:00 PM 89.6 °F 90.1 °F 62.6 °F 40% 29.92 in - NNW 9.2 mph - N/A   Clear
7:30 PM 87.8 °F 89.4 °F 64.4 °F 46% 29.92 in - NNW 10.4 mph - N/A   Clear
8:00 PM 87.8 °F 90.4 °F 66.2 °F 49% 29.92 in - NNW 10.4 mph - N/A   Clear
8:30 PM 87.8 °F 90.4 °F 66.2 °F 49% 29.92 in - NW 10.4 mph - N/A   Clear
9:00 PM 87 °F - 68 °F 43% 29.94 in 7 mi NW 11.5 mph - -  
9:00 PM 87.8 °F 91.4 °F 68.0 °F 52% 29.92 in - NW 11.5 mph - N/A   Clear
9:30 PM 87.8 °F 91.4 °F 68.0 °F 52% 29.92 in - NW 9.2 mph - N/A   Clear
10:00 PM 87.8 °F 91.4 °F 68.0 °F 52% 29.92 in - NW 10.4 mph - N/A   Clear
10:30 PM 86.0 °F 89.4 °F 68.0 °F 55% 29.92 in - NNW 9.2 mph - N/A   Clear
11:00 PM 86.0 °F 90.4 °F 69.8 °F 58% 29.92 in - NNW 9.2 mph - N/A   Clear
11:30 PM 86.0 °F 90.4 °F 69.8 °F 58% 29.92 in - NNW 10.4 mph - N/A   Clear